THOR AGENA B R/B, 1807

Orbit data source: Space-Track

THOR AGENA B R/B, 1807 is space debris in LEO originally from a launch on Mon, 29 Nov 1965 UTC launched from the Air Force Western Test Range (AFWTR). Debris objects in space refer to the collection of defunct objects orbiting the Earth. Examples of debris include non-operational satellites, rocket bodies, and fragments generated from explosions, collisions, or faulty payload assembly.

Loading next visibility...
Identifier
1807, 1965-098C
Orbit
LEO
Country
Flag of USUS
Related business
Manufacturer
LMSC
Mission
Spacecraft
Bus & Motor
AGENA B, Unknown motor
Mass
600 kg wet, 600 kg dry
Launch date (UTC)
1965-11-29 (60 years ago)
Launch vehicle
Unknown
Launch site
Air Force Western Test Range (AFWTR)
Object type
Payload
Rocket body
Debris
Shape & HBR
Unknown
Radar Cross Section
Large (>1 m²)

Expand to show TLE details & history
Last TLE update: 17 hours ago

TLE from 17 hours ago
0 THOR AGENA B R/B
1 01807U 65098C   25286.90708164  .00000687  00000-0  22300-3 0  9993
2 01807  79.8324 250.1214 1332434 170.3114 192.6678 12.27684890643079
Epoch: 2025-10-13T21:46Z
TLE epoch observation values (Epoch: 2025-10-13T21:46:11.853Z)
Latitude
0.00002°
Longitude
-99.13112°
Altitude
2,599.608 km
Speed
6.214 km/s
True Right ascension
16h 40m 29s
True Declination
0° 00' 00"
Sunlit
Object was in daylight at epoch
Visualization orbit readout
Latitude
Unknown
Longitude
Unknown
Altitude
Unknown
Speed
Unknown
Apparent Right ascension
Unknown
Apparent Declination
Unknown
Sunlit
N/A
Visualization observer readout
Local Sidereal Time
09:40:14
Azimuth
Unknown
Elevation
Unknown
Doppler factor
Unknown
Orbital elements
Apogee altitude
2,613.926 km
Perigee altitude
499.406 km
Semi-major axis
7,934.803 km
Eccentricity
0.13324
Inclination
79.8324°
RAAN
250.1214°
Arg. of periapsis
170.3114°
True anomaly
189.79068°
Mean anomaly
192.6678°
Eccentric anomaly
191.1867°
Mean motion
3.07071 °/min
Orbital period
117.24 mins
BSTAR
0.000223
Loading maneuver chart data...
Computing Atmospheric mass density...
Loading historical data...
Loading historical data...
Loading historical data...
Loading historical data...
Loading historical data...
Loading historical data...
Loading historical data...

Documentation

Showing up to 5 results
|